#timestamp,LO_Frequency,Hit,StdDev 
1571277615.3,286047000.5,N
1571277635.1,286047000.0,N
1571277655.9,286047000.0,N
1571277675.7,286047000.2,N
1571277695.5,286047000.4,N
1571277715.4,286047002.8,N
1571277735.2,286047004.0,N
1571277755.0,286047003.2,N
1571277755.9,286047003.2,N
1571277775.8,286047003.3,N
1571277795.6,286047004.3,N
1571277815.5,286047002.5,N
1571277835.3,286047003.2,N
1571277855.1,286047005.9,N
1571277875.9,286047004.0,N
1571277895.7,286047005.5,N
1571277915.5,286047005.4,N
1571277935.4,286047011.9,Y
1571277955.2,286047003.1,P
1571277975.1,286047005.7,P
1571277976.0,286047005.7,N
1571277995.8,286047006.0,N
1571278015.6,286047005.6,N
1571278035.5,286047006.9,Y
1571278055.3,286047001.3,P
1571278075.2,286047002.9,N
1571278095.9,286047004.1,P
1571278115.7,286047004.0,Y
1571278135.6,286046998.1,P
1571278155.4,286046999.4,N
1571278175.2,286046998.0,N
1571278195.1,286046998.7,N
1571278196.0,286046998.7,N
1571278215.8,286046999.1,N
1571278235.7,286046998.3,N
1571278255.5,286046999.6,N
1571278275.3,286046999.5,N
1571278295.2,286046996.5,N
1571278315.0,286046998.8,N
1571278315.9,286046998.8,N
1571278335.7,286046996.9,N
1571278355.6,286046999.2,N
1571278375.4,286046998.5,N
1571278395.3,286047000.6,N
1571278415.1,286047000.6,N
1571278416.0,286047000.6,N
1571278435.8,286047001.1,N
1571278455.7,286047001.2,N
1571278475.5,286046998.6,N
1571278495.4,286046997.1,N
1571278515.2,286046994.9,Y
1571278535.0,286046999.2,P
1571278535.9,286046999.2,P
1571278555.8,286046997.3,P
1571278575.6,286046994.9,Y
1571278595.4,286046998.4,P
1571278615.3,286046999.2,P
1571278635.1,286046998.4,P
1571278655.9,286046998.9,Y
1571278675.7,286047000.3,P
1571278695.5,286047000.9,N
1571278715.4,286046999.2,N
1571278735.2,286046996.8,Y
1571278755.1,286046996.8,P
1571278756.0,286046996.8,N
1571278775.8,286046997.2,N
1571278795.6,286046999.6,N
1571278815.5,286046998.9,N
1571278835.3,286046996.9,N
1571278855.1,286046999.3,N
1571278875.9,286046998.9,N
1571278895.7,286046999.3,N
1571278915.6,286047000.6,N
1571278935.4,286046999.1,N
1571278955.2,286046996.5,N
1571278975.1,286046997.7,N
1571278976.0,286046997.7,N
1571278995.8,286046995.2,Y
1571279015.6,286046995.4,P
1571279035.5,286046997.8,N
1571279055.3,286046995.9,P
1571279075.2,286046993.9,Y
1571279095.9,286046996.6,P
1571279115.7,286046998.8,P
1571279135.6,286047000.2,N
1571279155.4,286047002.0,N
1571279175.3,286046999.8,N
1571279195.1,286047001.5,N
1571279196.0,286047001.5,N
1571279215.8,286047004.3,N
1571279235.7,286047002.8,N
1571279255.5,286047000.0,N
1571279275.3,286047001.0,N
1571279295.2,286047001.1,N
1571279315.0,286046998.1,N
1571279315.9,286046998.1,N
1571279335.8,286047000.9,N
1571279355.6,286046999.3,N
1571279375.4,286046997.3,N
1571279395.3,286046997.2,N
1571279415.1,286046997.2,N
1571279435.8,286046997.3,N
1571279455.7,286046996.6,N
1571279475.5,286046997.1,N
1571279495.3,286047001.0,N
1571279515.2,286046998.8,N
1571279535.0,286046998.9,N
1571279535.9,286046998.9,N
1571279555.8,286046998.3,N
1571279575.6,286046998.7,N
1571279595.4,286046999.6,N
1571279615.3,286046996.5,N
1571279635.1,286046996.6,N
1571279655.9,286046998.0,N
1571279675.7,286046995.7,N
1571279695.5,286046996.8,N
1571279715.4,286046999.3,N
1571279735.2,286046998.7,N
1571279755.0,286046998.7,N
1571279755.9,286046998.7,N
1571279775.8,286046998.6,N
1571279795.6,286046998.6,N
1571279815.5,286046998.7,N
1571279835.3,286046998.4,N
1571279855.1,286046998.6,N
1571279875.9,286047000.0,N
1571279895.7,286047000.7,N
1571279915.5,286047000.4,N
1571279935.4,286047000.8,N
1571279955.2,286046999.8,N
1571279975.0,286047002.6,N
1571279975.9,286047002.6,N
1571279995.8,286047004.0,N
1571280015.6,286047001.7,N
1571280035.5,286047001.3,N
1571280055.3,286047003.2,N
1571280075.1,286047005.4,N
1571280095.9,286047004.0,N
1571280115.7,286047000.4,N
1571280135.5,286047002.2,N
1571280155.4,286047000.5,N
1571280175.2,286047001.0,N
1571280195.1,286046998.8,N
1571280196.0,286046998.8,N
1571280215.8,286046996.9,N
1571280235.6,286046997.0,N
1571280255.5,286046995.3,N
1571280275.3,286046997.5,N
1571280295.1,286046995.3,N
1571280315.9,286046996.6,N
1571280335.7,286046996.8,N
1571280355.6,286046998.7,N
1571280375.4,286046998.4,N
1571280395.2,286046997.1,N
1571280415.1,286046997.2,N
1571280416.0,286046997.2,N
1571280435.8,286046997.0,N
1571280455.6,286046996.5,N
1571280475.5,286046996.9,N
1571280495.3,286046996.7,N
1571280515.2,286046997.7,N
1571280535.9,286046995.8,N
1571280555.7,286046992.4,N
1571280575.6,286046988.9,Y
1571280595.4,286046988.5,P
1571280615.2,286046989.9,N
1571280635.1,286046985.3,P
1571280636.0,286046985.3,Y
1571280655.8,286046994.5,P
1571280675.7,286046993.6,P
1571280695.5,286046992.3,P
1571280715.3,286046992.6,Y
1571280735.2,286047000.8,P
1571280755.0,286047000.5,N
1571280755.9,286047000.5,N
1571280775.8,286047002.6,N
1571280795.6,286047003.7,N
1571280815.4,286047005.6,N
1571280835.3,286047006.8,N
1571280855.1,286047006.1,N
1571280856.0,286047006.1,N
1571280875.8,286047009.1,N
1571280895.7,286047010.0,N
1571280915.5,286047010.2,N
1571280935.3,286047012.2,N
1571280955.2,286047012.2,N
1571280975.0,286047011.4,N
1571280975.9,286047011.4,N
1571280995.8,286047011.0,N
1571281015.6,286047015.5,N
1571281035.4,286047012.8,N
1571281055.3,286047016.7,Y
1571281075.1,286047010.4,P
1571281095.8,286047013.6,P
1571281115.7,286047015.4,P
1571281135.5,286047014.2,Y
1571281155.4,286047003.8,P
1571281175.2,286047004.4,N
1571281195.0,286047000.2,N
1571281195.9,286047000.2,N
